"Pseudo-MPEC" for P10Ny0j

Created 2019 May 21 8:07:20 UT using Find_Orb

Click here for an explanation of pseudo-MPECs

 
 Astrometry: 
     P10Ny0j  C2019 05 07RfpKVe31;g5o)x(D;$3Ur-(?x/3:1Astrometry@'[k7F%81@YFjF51
     P10Ny0j  C2019 05 07bDpEBeI/@u#:o2N/wH6X9NX@i9yi]g-adsds9`6T+(\n%*+7x3ISF51
     P10Ny0j  C2019 05 07l/,[lITc3M(,fBv]v[e3PE=56;:2U,u;BBrredacted;Ev52#=riF51
     P10Ny0j KC2019 05 08_I6*FI4E@I[6KOZ6QPXsHWI]iLU;p:dP*IclickvS]ANaWf`@!vKH21
     P10Ny0j KC2019 05 08+.y-eHj.Oy$y:hODkRO!Zj2x0sreoCpXB#wEH`tGdM;,:x\F'^KpH21
     P10Ny0j KC2019 05 08X[CP!mMqKJuHowbCDp:3LTe/FGZq=8,here;B-.IYYs.[h+De)$5H21
     P10Ny0j KC2019 05 08C7QforV%QL1sC#Z^EAlo%h.a1m_PwcftU(L1a#43iaVlu;8=aa=g291
     P10Ny0j KC2019 05 08)(nsgEJ*eEexplanation9GqK.t9A=TQ0PFm.cdOFDW;x`B\%gvL291
     P10Ny0j KC2019 05 08^GZ3:UPn,`D-bk;%0D.!Ay[I5`61fu2F.LU^A;y?H;e=uOa!]bvd291

Station data:
(291) LPL/Spacewatch II  (N31.961669 W111.599905)  US/Arizona.  Observers J.
   V. Scotti, R. S. McMillan. 1.8-m f/2.7 reflector + CCD.
(F51) Pan-STARRS 1, Haleakala  (N20.707235 W156.255910)  US/Hawaii.
   Observers N. Primak, A. Schultz, S. Watters, J. Thiel, T. Goggia. Measurer
   PS1 Science Consortium. 1.8-m Ritchey-Chrétien + CCD.
(H21) Astronomical Research Observatory, Westfield  (N39.483057 W87.968270)
   US/Illinois. 0.76-m f/3.0 astrograph + CCD.

Orbital elements:  P10Ny0j
   Perihelion 2019 Jun 26.049934 +/- 0.186 TT =  1:11:54 (JD 2458660.549934)
Epoch 2019 May  8.0 TT = JDT 2458611.5   Earth MOID: 0.1049   Ma: 0.0197
M 338.07218033 +/- 0.6              (J2000 ecliptic)          AutoNEOCP
n   0.44705094 +/- 0.0143           Peri.   97.09331 +/- 1.6
a   1.69394004 +/- 0.0361           Node   180.10270 +/- 320
e   0.3978823 +/- 0.0136            Incl.    6.57846 +/- 0.20
P   2.20/805.26d           H 23.9   G  0.15   U  9.9  
q 1.01995111 +/- 0.00334    Q 2.36792896 +/- 0.0748
From 9 observations 2019 May 7-8 (24.8 hr); mean residual 0".10
Residuals in arcseconds: 
190507 F51  .07-  .02+    190508 H21  .00   .11-    190508 291  .06-  .32+    
190507 F51  .03+  .02+    190508 H21  .02+  .04+    190508 291  .01-  .10-    
190507 F51  .04+  .04-    190508 H21  .01+  .07+    190508 291  .03+  .21-    

Ephemerides (geocentric):
Date (UTC) HH   RA              Dec         delta   r     elong  mag " sig PA
---- -- -- --  -------------   -----------  ------ ------ -----  --- ---- ---
2019 05 21 08  15 43 41.449   +37 07 56.01  .12998 1.0878 122.8 21.6 88.4   9
2019 05 21 09  15 43 52.388   +37 11 20.92  .12991 1.0877 122.7 21.6 88.9   9
2019 05 21 10  15 44 03.354   +37 14 45.84  .12985 1.0875 122.6 21.6 89.5   9
2019 05 21 11  15 44 14.348   +37 18 10.78  .12978 1.0874 122.6 21.6 90.1   9
2019 05 21 12  15 44 25.371   +37 21 35.74  .12971 1.0872 122.5 21.6 90.7   9
2019 05 21 13  15 44 36.421   +37 25 00.71  .12965 1.0871 122.4 21.6 91.3  10
2019 05 21 14  15 44 47.500   +37 28 25.71  .12958 1.0870 122.4 21.6 91.9  10
2019 05 21 15  15 44 58.607   +37 31 50.72  .12952 1.0868 122.3 21.6 92.5  10
2019 05 21 16  15 45 09.742   +37 35 15.74  .12945 1.0867 122.2 21.6 93.1  10
2019 05 21 17  15 45 20.906   +37 38 40.78  .12938 1.0865 122.2 21.6 93.7  10
2019 05 21 18  15 45 32.098   +37 42 05.84  .12932 1.0864 122.1 21.6 94.3  10
2019 05 21 19  15 45 43.319   +37 45 30.91  .12925 1.0862 122.0 21.6 94.9  10
2019 05 21 20  15 45 54.569   +37 48 55.99  .12919 1.0861 122.0 21.6 95.5  10
2019 05 21 21  15 46 05.847   +37 52 21.08  .12913 1.0859 121.9 21.6 96.1  10
2019 05 21 22  15 46 17.154   +37 55 46.19  .12906 1.0858 121.8 21.6 96.7  10
2019 05 21 23  15 46 28.490   +37 59 11.31  .12900 1.0856 121.8 21.6 97.3  10
2019 05 22 00  15 46 39.856   +38 02 36.43  .12893 1.0855 121.7 21.6 98.0  10
2019 05 22 01  15 46 51.250   +38 06 01.56  .12887 1.0853 121.6 21.6 98.6  10
2019 05 22 02  15 47 02.673   +38 09 26.71  .12881 1.0852 121.6 21.6 99.2  10
2019 05 22 03  15 47 14.126   +38 12 51.86  .12874 1.0850 121.5 21.6 99.8  10
2019 05 22 04  15 47 25.608   +38 16 17.01  .12868 1.0849 121.4 21.6  100  11
2019 05 22 05  15 47 37.119   +38 19 42.17  .12862 1.0847 121.4 21.6  101  11
2019 05 22 06  15 47 48.660   +38 23 07.34  .12855 1.0846 121.3 21.6  102  11
2019 05 22 07  15 48 00.230   +38 26 32.51  .12849 1.0844 121.3 21.6  102  11
2019 05 22 08  15 48 11.830   +38 29 57.68  .12843 1.0843 121.2 21.6  103  11
2019 05 22 09  15 48 23.460   +38 33 22.86  .12836 1.0842 121.1 21.6  104  11
2019 05 22 10  15 48 35.120   +38 36 48.04  .12830 1.0840 121.1 21.6  104  11
2019 05 22 11  15 48 46.809   +38 40 13.22  .12824 1.0839 121.0 21.6  105  11
2019 05 22 12  15 48 58.529   +38 43 38.40  .12818 1.0837 120.9 21.6  105  11
2019 05 22 13  15 49 10.278   +38 47 03.58  .12812 1.0836 120.9 21.6  106  11
2019 05 22 14  15 49 22.058   +38 50 28.76  .12806 1.0834 120.8 21.6  107  11
2019 05 22 15  15 49 33.868   +38 53 53.93  .12799 1.0833 120.7 21.6  107  11
2019 05 22 16  15 49 45.708   +38 57 19.10  .12793 1.0831 120.7 21.6  108  11
2019 05 22 17  15 49 57.579   +39 00 44.27  .12787 1.0830 120.6 21.6  109  11
2019 05 22 18  15 50 09.480   +39 04 09.43  .12781 1.0828 120.5 21.6  109  12
2019 05 22 19  15 50 21.412   +39 07 34.59  .12775 1.0827 120.5 21.6  110  12
2019 05 22 20  15 50 33.374   +39 10 59.74  .12769 1.0826 120.4 21.6  111  12
2019 05 22 21  15 50 45.368   +39 14 24.89  .12763 1.0824 120.3 21.6  111  12
2019 05 22 22  15 50 57.392   +39 17 50.03  .12757 1.0823 120.3 21.6  112  12
2019 05 22 23  15 51 09.447   +39 21 15.15  .12751 1.0821 120.2 21.6  113  12
2019 05 23 00  15 51 21.533   +39 24 40.27  .12745 1.0820 120.1 21.6  113  12
2019 05 23 01  15 51 33.650   +39 28 05.38  .12739 1.0818 120.1 21.6  114  12
2019 05 23 02  15 51 45.798   +39 31 30.47  .12733 1.0817 120.0 21.6  115  12
2019 05 23 03  15 51 57.978   +39 34 55.56  .12727 1.0816 120.0 21.6  115  12
2019 05 23 04  15 52 10.189   +39 38 20.63  .12721 1.0814 119.9 21.6  116  12
2019 05 23 05  15 52 22.431   +39 41 45.68  .12715 1.0813 119.8 21.6  117  12
2019 05 23 06  15 52 34.705   +39 45 10.73  .12710 1.0811 119.8 21.6  117  12
2019 05 23 07  15 52 47.010   +39 48 35.75  .12704 1.0810 119.7 21.6  118  12